Weather in Lebedyn

Ukraine / Sumi District     50°34′35″N   34°29′11″E
В апреле 2022 года жителям России запретили посещать сайт meteo.paraplan.net по решению Генеральной прокуратуры. Аудитория сайта уменьшилась в 10 раз. Владельцы сайта не видят смысла в поддержке погодного сервера в таких условиях. Сайт будет закрыт в октябре.
temp.,
°C
wind,
m/s
gust,
m/s
humid.,
%
clouds,
%
prec.,
mm/h
press.,
hPa
HPBL,
m
29 september, thu
thu2900:00+11sw22905 0.0 100514
03:00+10sw229230 0.0 100634
06:00+12wsw359213 0.0 1008160
09:00+13nw238199 0.0 1010252
12:00+16se116093 0.0 1011555
15:00+18ssw2356100 0.0 1011973
18:00+16ese1169100 0.0 101111
21:00+14se337794 0.0 101229
30 september, fri
fri3000:00+14se4873100 0.0 1012132
03:00+15sse41067100 0.0 1013219
06:00+14sse3482100 0.4 101365
09:00+16sse41177100 0.5 1014370
12:00+20s7967100 0.1 1014817
15:00+20s6871100 0.1 1014723
18:00+18ssw338479 0.4 101547
21:00+16s3392100 0.4 101637
1 october, sat
sat100:00+15ssw229394 0.0 101616
03:00+14sw22945 0.0 101722
06:00+14sw229463 0.0 101711
09:00+17ssw2382100 0.0 1018170
12:00+21ssw456599 0.0 1017721
15:00+23sw5753100 0.0 10151219
18:00+20ssw3768100 0.0 1015145
21:00+17ssw33807 1.2 101442
2 october, sun
sun200:00+15wnw229064 0.6 101322
03:00+14ne1191100 0.6 101311
06:00+14ene2292100 0.0 101225
09:00+16ese3583100 0.0 1011177
12:00+18se4882100 1.9 1009329
15:00+20sse3574100 2.6 1007335
18:00+18e3481100 0.2 100555
21:00+15ne2297100 4.4 100563
3 october, mon
mon300:00+16s4990100 1.8 1003433
03:00+15se3897100 4.6 1001351
06:00+15ese71490100 1.8 994604
09:00+15ese71394100 3.3 991691
12:00+15ssw4797100 23.4 988397
15:00+10w111692100 25.6 9911070
18:00+9wsw111789100 3.8 9971439
21:00+10sw101688100 6.7 10001493